This demonstration page uses our WeatherBlox Daily Observations layout. Learn more.

Left ArrowRight Arrow

Hourly Observations for February 29, 2016

Temp ( °F °C ) Dew Point ( °F °C ) Humidity (%) Winds ( mph kmh ) Pressure ( in mb ) Visibility ( mi km ) Precip ( " mm )
12:53 am 00:53 Clear 48 8.9 42 5.6 80 80 N 5 7 30.19 1022 10 16 0.00 0.00
1:53 am 01:53 Clear 47 8.3 41 5 80 80 Calm 30.19 1022 10 16 0.00 0.00
2:53 am 02:53 Clear 43 6.1 39 3.9 86 86 Calm 30.17 1022 10 16 0.00 0.00
3:53 am 03:53 Clear 47 8.3 40 4.4 77 77 N 6 9 30.17 1022 10 16 0.00 0.00
4:53 am 04:53 Clear 45 7.2 39 3.9 80 80 NNW 3 6 30.17 1022 10 16 0.00 0.00
5:53 am 05:53 Clear 42 5.6 37 2.8 82 82 WNW 5 7 30.19 1022 10 16 0.00 0.00
6:53 am 06:53 Sunny 46 7.8 37 2.8 71 71 NNW 6 9 30.19 1023 10 16 0.00 0.00
7:53 am 07:53 Sunny 48 8.9 40 4.4 74 74 NNE 3 6 30.20 1023 10 16 0.00 0.00
8:53 am 08:53 Sunny 55 12.8 40 4.4 57 57 NNE 5 7 30.21 1023 10 16 0.00 0.00
9:53 am 09:53 Sunny 59 15 41 5 51 51 VRB 3 6 30.21 1023 10 16 0.00 0.00
10:53 am 10:53 Sunny 64 17.8 42 5.6 45 45 NNW 3 6 30.20 1023 10 16 0.00 0.00
11:53 am 11:53 Sunny 67 19.4 42 5.6 41 41 NNW 5 7 30.17 1022 10 16 0.00 0.00
12:53 pm 12:53 Sunny 68 20 40 4.4 36 36 Calm 30.16 1021 10 16 0.00 0.00
1:53 pm 13:53 Mostly Sunny 69 20.6 37 2.8 31 31 Calm 30.14 1021 10 16 0.00 0.00
2:53 pm 14:53 Mostly Cloudy 70 21.1 32 0 25 25 SE 5 7 30.11 1020 10 16 0.00 0.00
3:53 pm 15:53 Mostly Cloudy 69 20.6 38 3.3 32 32 SE 3 6 30.11 1020 10 16 0.00 0.00
4:53 pm 16:53 Cloudy 68 20 39 3.9 35 35 Calm 30.13 1020 10 16 0.00 0.00
5:53 pm 17:53 Cloudy 65 18.3 43 6.1 45 45 E 8 13 30.11 1020 10 16 0.00 0.00
6:53 pm 18:53 Mostly Cloudy 63 17.2 43 6.1 48 48 Calm 30.12 1020 10 16 0.00 0.00
7:53 pm 19:53 Clear 61 16.1 42 5.6 50 50 Calm 30.12 1020 10 16 0.00 0.00
8:53 pm 20:53 Clear 59 15 43 6.1 56 56 WNW 6 9 30.12 1020 10 16 0.00 0.00
9:53 pm 21:53 Clear 56 13.3 45 7.2 67 67 ESE 5 7 30.11 1020 10 16 0.00 0.00
10:53 pm 22:53 Clear 54 12.2 43 6.1 67 67 Calm 30.11 1020 10 16 0.00 0.00
11:53 pm 23:53 Clear 51 10.6 43 6.1 74 74 NE 5 7 30.11 1020 10 16 0.00 0.00

Powered by AerisWeather